Chillicothe, MO

7:49 PM CST on December 12, 2019 (GMT -0600)
Chillicothe

Weather History for KCDJ - August, 2019

Change the Weather History Date:

Monday, August 12, 2019

  Actual Average (WUND) Record (WUND)
Temperature  
Mean Temperature 81 °F -  
Max Temperature 91 °F - - (-1)
Min Temperature 72 °F - - (-1)
Cooling Degree Days 16    
Growing Degree Days 31 (Base 50)    
Moisture  
Dew Point 75 °F    
Average Humidity 83    
Maximum Humidity 100    
Minimum Humidity 65    
Precipitation  
Precipitation 1.15 in - - ()
Sea Level Pressure  
Sea Level Pressure 29.80 in    
Wind  
Wind Speed 4 mph (SE)    
Max Wind Speed 10 mph    
Max Gust Speed 22 mph    
Averages and records for this station are not official NWS values.
T = Trace of Precipitation, MM = Missing Value Source: NWS Daily Summary

Daily Weather History Graph

Daily Weather History Graph

Search for Another Location

Airport or City:

Astronomy

Aug. 12, 2019 Rise Set
Actual Time 6:23 AM CDT 8:14 PM CDT
Civil Twilight 5:54 AM CDT 8:43 PM CDT
Nautical Twilight 5:18 AM CDT 9:19 PM CDT
Astronomical Twilight 4:40 AM CDT 9:57 PM CDT
Moon 6:45 PM CDT (8/12) 3:33 AM CDT (8/12)
Length of Visible Light 14h 49m
Length of Day
13h 51m
Waxing Gibbous, 93% of the Moon is Illuminated
Aug 12
Waxing Gibbous
Aug 15
Full
Aug 23
Last Quarter
Aug 30
New
Sep 5
First Quarter

Hourly Weather History & Observations

Time (CDT) Temp. Heat Index Dew Point Humidity Pressure Visibility Wind Dir Wind Speed Gust Speed Precip Events Conditions
12:52 AM 77.0 °F - 73.9 °F 90% 29.89 in - Calm Calm - N/A   Unknown
1:52 AM 77.0 °F - 73.9 °F 90% 29.87 in - SE 4.6 mph - N/A   Unknown
2:52 AM 77.0 °F - 73.9 °F 90% 29.84 in - Variable 3.5 mph - N/A   Unknown
3:52 AM 75.9 °F - 73.9 °F 94% 29.79 in - East 5.8 mph - 0.02 in   Unknown
4:52 AM 75.9 °F - 75.9 °F 100% 29.81 in - Calm Calm - 0.37 in   Unknown
5:52 AM 72.0 °F - 72.0 °F 100% 29.91 in - WNW 10.4 mph 21.9 mph 0.05 in   Unknown
6:52 AM 72.0 °F - 70.0 °F 93% 29.83 in - NNE 4.6 mph - 0.71 in   Unknown
7:52 AM 72.0 °F - 71.1 °F 97% 29.80 in - ESE 5.8 mph - N/A   Unknown
8:52 AM 73.9 °F - 72.0 °F 93% 29.82 in - East 9.2 mph - N/A   Unknown
9:52 AM 75.9 °F - 72.0 °F 87% 29.85 in - Variable 5.8 mph - N/A   Unknown
10:52 AM 79.0 °F - 71.1 °F 77% 29.82 in - SE 9.2 mph - N/A   Unknown
11:52 AM 82.9 °F 89.4 °F 73.9 °F 74% 29.80 in - North - - N/A   Unknown
12:52 PM 84.0 °F 93.7 °F 77.0 °F 79% 29.78 in - SSE 8.1 mph 16.1 mph N/A   Unknown
1:52 PM 86.0 °F 98.3 °F 78.1 °F 77% 29.76 in - South 9.2 mph - N/A   Unknown
2:52 PM 88.0 °F 100.2 °F 77.0 °F 70% 29.75 in - SSW 5.8 mph - N/A   Unknown
3:52 PM 90.0 °F 104.5 °F 78.1 °F 68% 29.74 in - Variable 5.8 mph - N/A   Unknown
4:52 PM 90.0 °F 104.5 °F 78.1 °F 68% 29.74 in - Variable 4.6 mph - N/A   Unknown
5:52 PM 90.0 °F 102.5 °F 77.0 °F 65% 29.74 in - Variable 4.6 mph - N/A   Unknown
6:52 PM 88.0 °F 100.2 °F 77.0 °F 70% 29.76 in - NW 4.6 mph - N/A   Unknown
7:52 PM 84.9 °F 95.3 °F 77.0 °F 77% 29.77 in - Calm Calm - N/A   Unknown
8:52 PM 82.9 °F 91.8 °F 77.0 °F 82% 29.78 in - Calm Calm - N/A   Unknown
9:52 PM 81.0 °F 87.3 °F 75.9 °F 85% 29.78 in - NW 3.5 mph - N/A   Unknown
10:52 PM 80.1 °F 85.1 °F 75.0 °F 85% 29.80 in - Variable 3.5 mph - N/A   Unknown
11:52 PM 79.0 °F - 73.9 °F 84% 29.80 in - Variable 3.5 mph - N/A   Unknown